Weather History for Clemson, SC

Change the Weather History Date:

Tuesday, September 3, 2013

  Actual Average Record
Temperature  
Mean Temperature 79 °F -  
Max Temperature 90 °F 85 °F 97 °F (1930)
Min Temperature 69 °F 65 °F 51 °F (1967)
Cooling Degree Days 14    
Growing Degree Days 29 (Base 50)    
Moisture  
Dew Point 68 °F    
Average Humidity 76    
Maximum Humidity 87    
Minimum Humidity 55    
Precipitation  
Precipitation 0.17 in - - ()
Sea Level Pressure  
Sea Level Pressure 29.91 in    
Wind  
Wind Speed 4 mph (WNW)    
Max Wind Speed 16 mph    
Max Gust Speed 28 mph    
Visibility 9 miles    
Events Rain , Thunderstorm    
Averages and records for this station are not official NWS values.
T = Trace of Precipitation, MM = Missing Value Source: NWS Daily Summary

Daily Weather History Graph

Daily Weather History Graph

Search for Another Location

Airport:

Trip Planner

Search our weather history database for the weather conditions in past years. The results will help you decide how hot, cold, wet, or windy it might be!

Date:

Astronomy

Sep. 03, 2013 Rise Set
Actual Time 7:06 AM EDT 7:54 PM EDT
Civil Twilight 6:40 AM EDT 8:20 PM EDT
Nautical Twilight 6:10 AM EDT 8:50 PM EDT
Astronomical Twilight 5:38 AM EDT 9:21 PM EDT
Moon 5:21 AM EDT (9/3) 6:40 PM EDT (9/3)
Length of Visible Light 13h 39m
Length of Day
12h 48m
Waning Crescent, 3% of the Moon is Illuminated
Sep 3
Waning Crescent
Sep 5
New
Sep 12
First Quarter
Sep 19
Full
Sep 26
Last Quarter

Hourly Weather History & Observations

Time (EDT) Temp. Heat Index Dew Point Humidity Pressure Visibility Wind Dir Wind Speed Gust Speed Precip Events Conditions
12:54 AM 73.0 °F - 69.1 °F 87% 29.87 in 6.0 mi Calm Calm - N/A   Clear
1:54 AM 73.0 °F - 68.0 °F 84% 29.87 in 10.0 mi Calm Calm - N/A   Clear
2:54 AM 73.0 °F - 69.1 °F 87% 29.86 in 7.0 mi SSW 3.5 mph - N/A   Clear
3:54 AM 73.0 °F - 68.0 °F 84% 29.86 in 8.0 mi WNW 5.8 mph - N/A   Clear
4:54 AM 73.0 °F - 68.0 °F 84% 29.86 in 8.0 mi WNW 3.5 mph - N/A   Mostly Cloudy
5:54 AM 72.0 °F - 68.0 °F 87% 29.88 in 6.0 mi WSW 3.5 mph - N/A   Partly Cloudy
6:54 AM 72.0 °F - 68.0 °F 87% 29.91 in 7.0 mi NW 4.6 mph - N/A Thunderstorm Overcast
7:21 AM 73.4 °F - 64.4 °F 73% 29.99 in 10.0 mi NNW 16.1 mph 27.6 mph 0.00 in Rain , Thunderstorm Light Rain
7:54 AM 69.1 °F - 64.0 °F 84% 29.96 in 7.0 mi Variable 4.6 mph - 0.08 in Rain , Thunderstorm Thunderstorms and Rain
8:38 AM 69.8 °F - 64.4 °F 83% 29.94 in 10.0 mi Calm Calm - 0.09 in   Partly Cloudy
8:54 AM 69.1 °F - 64.9 °F 87% 29.95 in 10.0 mi West 12.7 mph - 0.09 in Rain Light Rain
9:54 AM 71.1 °F - 66.0 °F 84% 29.91 in 10.0 mi WSW 6.9 mph - N/A   Clear
10:54 AM 79.0 °F - 66.0 °F 64% 29.93 in 10.0 mi West 9.2 mph - N/A   Clear
11:54 AM 82.9 °F 85.8 °F 68.0 °F 60% 29.92 in 10.0 mi West 13.8 mph - N/A   Clear
12:54 PM 86.0 °F 90.1 °F 69.1 °F 57% 29.91 in 10.0 mi West 9.2 mph - N/A   Clear
1:54 PM 88.0 °F 92.9 °F 70.0 °F 55% 29.91 in 10.0 mi West 6.9 mph - N/A   Clear
2:54 PM 89.1 °F 95.0 °F 71.1 °F 55% 29.89 in 10.0 mi Variable 4.6 mph - N/A   Mostly Cloudy
6:54 PM 84.0 °F 90.2 °F 73.0 °F 69% 29.87 in 10.0 mi Calm Calm - N/A   Unknown
7:54 PM 82.9 °F 87.5 °F 71.1 °F 67% 29.90 in 10.0 mi East 3.5 mph - N/A   Clear
8:54 PM 80.1 °F 83.6 °F 71.1 °F 74% 29.93 in 10.0 mi Calm Calm - N/A   Scattered Clouds
9:54 PM 78.1 °F - 69.1 °F 74% 29.95 in 10.0 mi Calm Calm - N/A   Clear
10:54 PM 78.1 °F - 70.0 °F 76% 29.97 in 10.0 mi North 3.5 mph - N/A   Overcast
11:54 PM 78.1 °F - 71.1 °F 79% 29.99 in 10.0 mi NE 3.5 mph - N/A   Overcast